| time (UTC) | temp F | wind direction | speed MPH | gust MPH | rain 1hr in | rain 24hr in | rain mn in | humidity % | barometer mb |
| 20260502205805 | 52 | 206 | 0.0 | 0.0 | 0.00 | 0.17 | 0.17 | 62 | 1005.7 |
| 20260502205305 | 52 | 206 | 0.0 | 0.0 | 0.00 | 0.17 | 0.17 | 60 | 1005.7 |
| 20260502204805 | 53 | 206 | 0.0 | 0.0 | 0.00 | 0.17 | 0.17 | 54 | 1005.7 |
| 20260502204305 | 53 | 212 | 0.0 | 0.0 | 0.00 | 0.17 | 0.17 | 46 | 1005.7 |
| 20260502203804 | 53 | 214 | 0.0 | 0.0 | 0.00 | 0.17 | 0.17 | 46 | 1005.7 |
| 20260502200805 | 53 | 231 | 0.0 | 0.0 | 0.00 | 0.17 | 0.17 | 53 | 1005.7 |
| 20260502200304 | 53 | 231 | 0.0 | 3.0 | 0.00 | 0.17 | 0.17 | 51 | 1005.7 |
| 20260502195305 | 53 | 350 | 0.0 | 3.0 | 0.00 | 0.17 | 0.17 | 53 | 1005.7 |
| 20260502194304 | 54 | 115 | 0.0 | 2.0 | 0.00 | 0.17 | 0.17 | 54 | 1005.7 |
| 20260502192805 | 54 | 304 | 2.0 | 12.0 | 0.00 | 0.17 | 0.17 | 52 | 1005.7 |
| 20260502192305 | 54 | 79 | 2.0 | 5.0 | 0.00 | 0.17 | 0.17 | 53 | 1006.2 |
| 20260502190304 | 55 | 27 | 0.0 | 3.0 | 0.00 | 0.17 | 0.17 | 53 | 1006.2 |
| 20260502185805 | 55 | 4 | 1.0 | 5.0 | 0.00 | 0.17 | 0.17 | 56 | 1006.2 |
| 20260502185306 | 53 | 297 | 1.0 | 5.0 | 0.00 | 0.17 | 0.17 | 55 | 1006.2 |
| 20260502184304 | 53 | 102 | 0.0 | 2.0 | 0.00 | 0.17 | 0.17 | 56 | 1006.2 |
| 20260502183304 | 54 | 244 | 1.0 | 3.0 | 0.00 | 0.17 | 0.17 | 56 | 1006.2 |
| 20260502182305 | 53 | 42 | 1.0 | 3.0 | 0.00 | 0.17 | 0.17 | 60 | 1006.4 |
| 20260502181804 | 52 | 16 | 1.0 | 3.0 | 0.00 | 0.17 | 0.17 | 64 | 1006.4 |
| 20260502181304 | 52 | 11 | 1.0 | 5.0 | 0.00 | 0.17 | 0.17 | 63 | 1006.4 |
| 20260502180805 | 51 | 46 | 1.0 | 3.0 | 0.00 | 0.17 | 0.17 | 66 | 1006.4 |
| 20260502180305 | 50 | 102 | 0.0 | 3.0 | 0.00 | 0.17 | 0.17 | 66 | 1006.4 |
| 20260502170304 | 50 | 124 | 0.0 | 0.0 | 0.00 | 0.17 | 0.17 | 79 | 1006.8 |
| 20260502164304 | 46 | 124 | 1.0 | 3.0 | 0.03 | 0.17 | 0.17 | 81 | 1007.1 |
| 20260502163804 | 46 | 218 | 0.0 | 0.0 | 0.03 | 0.17 | 0.17 | 81 | 1007.1 |
| 20260502163304 | 46 | 218 | 0.0 | 0.0 | 0.03 | 0.17 | 0.17 | 81 | 1007.1 |
| 20260502162804 | 46 | 218 | 0.0 | 2.0 | 0.03 | 0.17 | 0.17 | 80 | 1007.1 |
| 20260502160805 | 46 | 218 | 0.0 | 0.0 | 0.03 | 0.17 | 0.17 | 78 | 1007.1 |
| 20260502160304 | 46 | 218 | 0.0 | 0.0 | 0.03 | 0.17 | 0.17 | 78 | 1007.0 |
| 20260502150304 | 48 | 259 | 0.0 | 0.0 | 0.00 | 0.14 | 0.14 | 76 | 1007.3 |
| 20260502123304 | 43 | 250 | 0.0 | 0.0 | 0.00 | 0.14 | 0.14 | 86 | 1007.9 |
| 20260502122805 | 43 | 250 | 0.0 | 0.0 | 0.00 | 0.14 | 0.14 | 86 | 1007.9 |
| 20260502121805 | 43 | 250 | 0.0 | 0.0 | 0.00 | 0.14 | 0.14 | 86 | 1007.8 |
| 20260502121304 | 43 | 250 | 0.0 | 0.0 | 0.00 | 0.14 | 0.14 | 86 | 1007.8 |
| 20260502115804 | 43 | 250 | 0.0 | 0.0 | 0.00 | 0.14 | 0.14 | 86 | 1007.8 |
| 20260502115306 | 43 | 250 | 0.0 | 0.0 | 0.00 | 0.14 | 0.14 | 86 | 1007.8 |
| 20260502113304 | 42 | 250 | 0.0 | 0.0 | 0.00 | 0.14 | 0.14 | 85 | 1007.8 |
| 20260502112805 | 42 | 250 | 0.0 | 0.0 | 0.00 | 0.14 | 0.14 | 85 | 1007.8 |
| 20260502112306 | 42 | 250 | 0.0 | 0.0 | 0.00 | 0.14 | 0.14 | 85 | 1007.8 |
| 20260502111304 | 42 | 250 | 0.0 | 0.0 | 0.00 | 0.14 | 0.14 | 85 | 1007.8 |
| 20260502105804 | 42 | 250 | 0.0 | 0.0 | 0.00 | 0.14 | 0.14 | 85 | 1007.8 |
| 20260502105306 | 42 | 250 | 0.0 | 0.0 | 0.00 | 0.14 | 0.14 | 85 | 1007.3 |
| 20260502104804 | 42 | 250 | 0.0 | 0.0 | 0.00 | 0.14 | 0.14 | 85 | 1007.3 |
| 20260502102805 | 42 | 250 | 0.0 | 0.0 | 0.00 | 0.14 | 0.14 | 85 | 1007.4 |
| 20260502102306 | 42 | 250 | 0.0 | 0.0 | 0.00 | 0.14 | 0.14 | 85 | 1007.4 |
| 20260502100305 | 42 | 250 | 0.0 | 0.0 | 0.00 | 0.14 | 0.14 | 85 | 1007.3 |
| 20260502091304 | 42 | 250 | 0.0 | 0.0 | 0.03 | 0.14 | 0.14 | 84 | 1007.6 |
| 20260502071305 | 42 | 250 | 0.0 | 0.0 | 0.02 | 0.09 | 0.09 | 81 | 1007.9 |
| 20260502070804 | 42 | 250 | 0.0 | 0.0 | 0.02 | 0.09 | 0.09 | 81 | 1007.9 |
| 20260502070305 | 42 | 250 | 0.0 | 0.0 | 0.03 | 0.09 | 0.09 | 81 | 1007.9 |
| 20260502065805 | 42 | 250 | 0.0 | 0.0 | 0.04 | 0.09 | 0.09 | 81 | 1008.3 |
| 20260502065306 | 42 | 250 | 0.0 | 0.0 | 0.04 | 0.09 | 0.09 | 81 | 1008.3 |
| 20260502064804 | 42 | 250 | 0.0 | 0.0 | 0.05 | 0.09 | 0.09 | 81 | 1008.3 |
| 20260502063804 | 42 | 250 | 0.0 | 0.0 | 0.06 | 0.09 | 0.09 | 80 | 1008.3 |
| 20260502062804 | 42 | 250 | 0.0 | 0.0 | 0.07 | 0.09 | 0.09 | 80 | 1008.6 |
| 20260502061805 | 42 | 250 | 0.0 | 0.0 | 0.06 | 0.08 | 0.08 | 79 | 1008.6 |
| 20260502060805 | 42 | 250 | 0.0 | 0.0 | 0.06 | 0.07 | 0.07 | 78 | 1008.6 |
| 20260502055306 | 42 | 250 | 0.0 | 0.0 | 0.05 | 0.05 | 0.05 | 78 | 1008.6 |
| 20260502054304 | 43 | 250 | 0.0 | 0.0 | 0.03 | 0.03 | 0.03 | 77 | 1008.4 |
| 20260502053804 | 43 | 250 | 0.0 | 0.0 | 0.03 | 0.03 | 0.03 | 77 | 1008.4 |
| 20260502052804 | 43 | 250 | 0.0 | 0.0 | 0.02 | 0.02 | 0.02 | 75 | 1008.4 |
| 20260502052306 | 43 | 250 | 0.0 | 0.0 | 0.02 | 0.02 | 0.02 | 74 | 1008.2 |
| 20260502050804 | 44 | 250 | 0.0 | 0.0 | 0.01 | 0.01 | 0.01 | 71 | 1007.9 |
| 20260502050305 | 44 | 250 | 0.0 | 0.0 | 0.01 | 0.01 | 0.01 | 69 | 1007.9 |
| 20260502044304 | 44 | 250 | 0.0 | 0.0 | 0.00 | 0.00 | 0.00 | 65 | 1007.9 |
| 20260502042306 | 45 | 250 | 0.0 | 0.0 | 0.00 | 0.00 | 0.00 | 61 | 1007.3 |
| 20260502041804 | 45 | 250 | 0.0 | 0.0 | 0.00 | 0.00 | 0.00 | 61 | 1007.3 |
| 20260502041304 | 45 | 250 | 0.0 | 0.0 | 0.00 | 0.00 | 0.00 | 61 | 1007.3 |
| 20260502040821 | 45 | 250 | 0.0 | 0.0 | 0.00 | 0.00 | 0.00 | 61 | 1007.3 |
| 20260502035804 | 45 | 250 | 0.0 | 0.0 | 0.00 | 0.00 | 0.00 | 60 | 1007.3 |
| 20260502035306 | 45 | 250 | 0.0 | 0.0 | 0.00 | 0.00 | 0.00 | 60 | 1007.3 |
| 20260502034805 | 45 | 250 | 0.0 | 0.0 | 0.00 | 0.00 | 0.00 | 59 | 1007.3 |
| 20260502033804 | 45 | 250 | 0.0 | 0.0 | 0.00 | 0.00 | 0.00 | 58 | 1007.3 |
| 20260502032306 | 45 | 250 | 0.0 | 0.0 | 0.00 | 0.00 | 0.00 | 57 | 1007.3 |
| 20260502031804 | 45 | 250 | 0.0 | 0.0 | 0.00 | 0.00 | 0.00 | 57 | 1007.3 |
| 20260502031304 | 45 | 250 | 0.0 | 0.0 | 0.00 | 0.00 | 0.00 | 56 | 1007.3 |
| 20260502030804 | 45 | 250 | 0.0 | 0.0 | 0.00 | 0.00 | 0.00 | 56 | 1007.3 |
| 20260502025306 | 46 | 250 | 0.0 | 0.0 | 0.00 | 0.00 | 0.00 | 56 | 1007.3 |
| 20260502023804 | 46 | 250 | 0.0 | 0.0 | 0.00 | 0.00 | 0.00 | 55 | 1007.3 |
| 20260502023304 | 46 | 250 | 0.0 | 0.0 | 0.00 | 0.00 | 0.00 | 54 | 1007.3 |
| 20260502022805 | 46 | 250 | 0.0 | 0.0 | 0.00 | 0.00 | 0.00 | 53 | 1007.3 |
| 20260502021804 | 47 | 250 | 0.0 | 0.0 | 0.00 | 0.00 | 0.00 | 52 | 1007.3 |
| 20260502020804 | 47 | 250 | 0.0 | 0.0 | 0.00 | 0.00 | 0.00 | 50 | 1007.3 |
| 20260502015805 | 48 | 250 | 0.0 | 0.0 | 0.00 | 0.00 | 0.00 | 50 | 1007.3 |
| 20260502014305 | 49 | 250 | 0.0 | 0.0 | 0.00 | 0.01 | 0.00 | 48 | 1006.3 |
| 20260502013805 | 49 | 250 | 0.0 | 0.0 | 0.00 | 0.02 | 0.00 | 49 | 1006.3 |
| 20260502012805 | 49 | 250 | 0.0 | 0.0 | 0.00 | 0.02 | 0.00 | 48 | 1006.3 |
| 20260502012306 | 49 | 250 | 0.0 | 0.0 | 0.00 | 0.02 | 0.00 | 47 | 1006.3 |
| 20260502011805 | 50 | 250 | 0.0 | 0.0 | 0.00 | 0.02 | 0.00 | 46 | 1006.3 |
| 20260502010304 | 50 | 250 | 0.0 | 0.0 | 0.00 | 0.03 | 0.00 | 44 | 1006.3 |
| 20260502004804 | 50 | 250 | 0.0 | 0.0 | 0.00 | 0.03 | 0.00 | 44 | 1006.3 |
| 20260502004304 | 50 | 250 | 0.0 | 0.0 | 0.00 | 0.03 | 0.00 | 46 | 1006.3 |
| 20260502003804 | 51 | 250 | 0.0 | 0.0 | 0.00 | 0.04 | 0.00 | 44 | 1006.3 |
| 20260502002804 | 51 | 250 | 0.0 | 0.0 | 0.00 | 0.04 | 0.00 | 43 | 1006.3 |
| 20260502002305 | 51 | 250 | 0.0 | 0.0 | 0.00 | 0.04 | 0.00 | 37 | 1006.3 |
| 20260502001304 | 52 | 250 | 0.0 | 0.0 | 0.00 | 0.04 | 0.00 | 40 | 1006.2 |
| 20260502000304 | 52 | 250 | 0.0 | 0.0 | 0.00 | 0.04 | 0.00 | 36 | 1006.2 |
| 20260501235804 | 52 | 250 | 0.0 | 0.0 | 0.00 | 0.05 | 0.00 | 37 | 1006.0 |
| 20260501235305 | 52 | 250 | 0.0 | 0.0 | 0.00 | 0.05 | 0.00 | 36 | 1006.0 |
| 20260501234804 | 52 | 250 | 0.0 | 0.0 | 0.00 | 0.05 | 0.00 | 36 | 1005.2 |
| 20260501232804 | 53 | 250 | 0.0 | 0.0 | 0.00 | 0.05 | 0.00 | 34 | 1005.2 |
| 20260501232306 | 53 | 250 | 0.0 | 0.0 | 0.00 | 0.05 | 0.00 | 35 | 1005.2 |
| 20260501231305 | 53 | 250 | 0.0 | 0.0 | 0.00 | 0.05 | 0.00 | 32 | 1005.2 |
| 20260501230805 | 53 | 250 | 0.0 | 0.0 | 0.00 | 0.05 | 0.00 | 34 | 1005.2 |
| 20260501225804 | 54 | 250 | 0.0 | 0.0 | 0.00 | 0.05 | 0.00 | 35 | 1005.2 |
| 20260501224805 | 54 | 250 | 0.0 | 0.0 | 0.00 | 0.05 | 0.00 | 31 | 1005.2 |
| 20260501224304 | 54 | 250 | 0.0 | 0.0 | 0.00 | 0.05 | 0.00 | 31 | 1005.2 |
| 20260501223805 | 54 | 250 | 0.0 | 0.0 | 0.00 | 0.05 | 0.00 | 32 | 1005.2 |
| 20260501222305 | 55 | 250 | 0.0 | 0.0 | 0.00 | 0.06 | 0.00 | 31 | 1005.2 |
| 20260501221304 | 56 | 249 | 0.0 | 0.0 | 0.00 | 0.06 | 0.00 | 27 | 1005.2 |
| 20260501214804 | 56 | 79 | 0.0 | 2.0 | 0.00 | 0.06 | 0.00 | 28 | 1005.2 |
| 20260501214305 | 56 | 182 | 0.0 | 3.0 | 0.00 | 0.06 | 0.00 | 28 | 1005.2 |
| 20260501213805 | 56 | 22 | 0.0 | 2.0 | 0.00 | 0.06 | 0.00 | 26 | 1005.2 |
| 20260501213304 | 56 | 244 | 1.0 | 5.0 | 0.00 | 0.06 | 0.00 | 27 | 1005.2 |
| 20260501212804 | 56 | 64 | 0.0 | 0.0 | 0.00 | 0.06 | 0.00 | 27 | 1005.2 |